This is the latest recevied weather packets stored in our database for station/object WS4FSC-7. If no packets are shown the sender has not sent any weather packets the latest 10 day(s).
| Time | Temp. | Humidity | Pressure | Rain* | Wind** | Luminosity | Snow |
|---|---|---|---|---|---|---|---|
| 1787431816 | 32.78° C | 67% | 1014 hPa | - | - | 415 W/m² | - |
| 1787431635 | 32.78° C | 67% | 1014 hPa | - | - | 425 W/m² | - |
| 1787431456 | 32.78° C | 67% | 1014 hPa | - | - | 439 W/m² | - |
| 1787431276 | 32.78° C | 66% | 1014 hPa | - | - | 461 W/m² | - |
| 1787430915 | 32.78° C | 67% | 1014 hPa | - | - | 484 W/m² | - |
| 1787429836 | 33.89° C | 63% | 1014 hPa | - | - | 559 W/m² | - |
| 1787429656 | 33.89° C | 64% | 1014 hPa | - | - | 560 W/m² | - |
| 1787429476 | 33.33° C | 65% | 1014 hPa | - | - | 565 W/m² | - |
| 1787429296 | 33.33° C | 66% | 1014 hPa | - | - | 591 W/m² | - |
| 1787428936 | 33.33° C | 64% | 1014 hPa | - | - | 621 W/m² | - |
| 1787428576 | 33.33° C | 65% | 1014 hPa | - | - | 637 W/m² | - |
| 1787428396 | 33.33° C | 64% | 1014 hPa | - | - | 653 W/m² | - |
| 1787428036 | 33.33° C | 64% | 1014 hPa | - | - | 670 W/m² | - |
| 1787427855 | 33.33° C | 65% | 1015 hPa | - | - | 684 W/m² | - |
| 1787427135 | 32.78° C | 68% | 1015 hPa | - | - | 712 W/m² | - |
| 1787426776 | 32.78° C | 66% | 1015 hPa | - | - | 728 W/m² | - |
| 1787426416 | 33.33° C | 65% | 1015 hPa | - | - | 738 W/m² | - |
| 1787426236 | 33.33° C | 64% | 1015 hPa | - | - | 745 W/m² | - |
| 1787426057 | 33.33° C | 62% | 1015 hPa | - | - | 753 W/m² | - |
| 1787425876 | 32.78° C | 65% | 1015 hPa | - | - | 763 W/m² | - |
| 1787425696 | 33.33° C | 64% | 1015 hPa | - | - | 771 W/m² | - |
| 1787425516 | 33.33° C | 62% | 1015 hPa | - | - | 771 W/m² | - |
| 1787425336 | 33.33° C | 63% | 1015 hPa | - | - | 785 W/m² | - |
| 1787424976 | 33.33° C | 64% | 1015 hPa | - | - | 800 W/m² | - |
| 1787424616 | 33.33° C | 65% | 1015 hPa | - | - | 806 W/m² | - |
* Rain since midnight (hover to see other rain measurements)
** Current wind speed in m/s (hover to see current wind gust speed)